Back to catalog

CHINASAT 18

AliveCommunicationsHEO
NORAD 44493·PAYLOAD·🇨🇳 China

Launched Aug 19, 2019 from Xichang Satellite Launch Center

Loading…

Next Passes (next 24 hours)

TLE

FreshSource: Space-Track

Epoch: Sep 13, 2026, 07:00 UTC

1 44493U 19053A   26256.29198545  .00030858  88419-6  32851-3 0  9998
2 44493  28.4608 318.4677 6222103  78.1233 341.3788  3.81061739 73215

Track CHINASAT 18 in real time with AllMySat

Download on the App Store